Regional Weather Roundup
Issued by NWS Newport/Morehead, NC

Current Version | Previous Version | Text Only | Print | Product List | Glossary On
Versions: 1 2 3 4 5 6 7 8 9 10 11 12 13 14 15 16 17 18 19 20 21 22 23 24 25 26 27 28 29 30 31 32 33 34 35 36 37 38 39 40 41 42 43 44 45 46 47 48 49 50
000 ASUS42 KMHX 282225 RWRMHX WEATHER ROUNDUP FOR EASTERN NORTH CAROLINA NATIONAL WEATHER SERVICE NEWPORT/MOREHEAD CITY NC 600 PM EDT FRI AUG 28 2015 NOTE: "FAIR" INDICATES FEW OR NO CLOUDS BELOW 12,000 FEET WITH NO SIGNIFICANT WEATHER AND/OR OBSTRUCTIONS TO VISIBILITY NCZ015>017-031-032-045>047-102-103-282300- NORTH COAST CITY SKY/WX TMP DP RH WIND PRES REMARKS EDENTON PTSUNNY 80 60 51 NE7 30.15S ELIZABETH CITY PTSUNNY 79 62 56 NE9 30.16R KITTY HAWK MOCLDY 78 62 58 NE5 30.14S MANTEO PTSUNNY 77 63 62 NE12 30.15S $$ NCZ045>047-081-094-103-104-282300- CENTRAL COAST CITY SKY/WX TMP DP RH WIND PRES REMARKS FRISCO MOSUNNY 79 66 64 NE10G20 30.12S SWANQUARTER NOT AVBL $$ NCZ095-097-098-100-101-282300- SOUTHERN COAST CITY SKY/WX TMP DP RH WIND PRES REMARKS BEAUFORT MOSUNNY 80 67 64 NE14 30.12R CEDAR ISLAND NOT AVBL JACKSONVILLE MOSUNNY 82 63 52 NE13 30.11S PINEY ISLAND CLEAR N/A N/A N/A NE16G23 30.12S WILMINGTON CLOUDY 81 67 62 E6 30.11R $$ NCZ011>013-027>030-043-044-078>080-089-090>093-098-282300- COASTAL PLAIN CITY SKY/WX TMP DP RH WIND PRES REMARKS AHOSKIE MOSUNNY 80 57 45 NE7 30.15R CLINTON MOSUNNY 82 64 54 E6 30.13R ELIZABETHTOWN PTSUNNY 81 64 55 CALM 30.12R GOLDSBORO MOSUNNY 84 61 46 NE12 30.12S GREENVILLE MOSUNNY 81 63 54 E8 30.15S HAVELOCK MOSUNNY 81 67 62 E9 30.13S KENANSVILLE N/A 80 62 53 CALM 30.13S KINSTON MOSUNNY 82 63 51 E6 30.14R NEW BERN MOSUNNY 82 62 50 E13 30.14R RICHLANDS PTSUNNY 82 61 47 NE10 30.12S ROCKY MOUNT MOSUNNY 86 53 32 NE7 30.13F WASHINGTON MOSUNNY 79 62 57 E6 30.14S WHITEVILLE MOSUNNY 81 62 52 NE6 30.10F $$ AMZ130-135-150-152-154-156-158-170-250-252-270-ANZ085-086-088-633-658-670-282300- MARINE OBSERVATIONS STATION/POSITION TIME TEMP WIND PRES WAVE SWELL AIR SEA DIR/SP/G HT/PER HT/PER (UTC) (F) (DEG/KT/KT) (MB) (FT/S) (FT/S) CHESAPEAKE LIGHT 2200 76 60/ 9/ 10 1021.9 64 E VA BEACH 2150 76 80 20/ 14/ 17 1020.3 4/ 9 3/ 9 DUCK NOT AVBL 2 E DUCK 2111 79 N/A 4/10 2/11 OREGON INLET NOT AVBL 13E OREGON INLT 2200 78 N/A 5/11 2/11 HATTERAS CG NOT AVBL DIAMOND BUOY 2150 80 84 30/ 17/ 21 1019.5 5/ 8 3/ 8 CAPE LOOKOUT 2200 78 50/ 19/ 21 1019.6 BEAUFORT LAB NOT AVBL 30 SE NEW RVR IN 2108 80 82 60/ 17/ 23 1019.8 30 SE NEW RVR IN 2125 82 N/A 5/ 5 2/11 27 SE WRIGHTSVLE 2200 77 82 60/ 16/ 19 N/A 5 SE WRIGHTSVLE 2108 81 82 80/ 14/ 19 1019.3 225 S CAPE HAT 2150 82 84 200/ 6/ 8 1017.9 3/10 3/10 41 SE CHARLESTON 2150 80 84 60/ 19/ 23 1017.4 5/ 5 2/ 8 $$

USA.gov is the U.S. government's official web portal to all federal, state and local government web resources and services.